Belmar-Farmingdale, NJ

1:48 AM EST on November 13, 2019 (GMT -0500)
Allaire

Weather History for KBLM - September, 2019

Change the Weather History Date:

Monday, September 9, 2019

  Actual Average Record
Temperature  
Mean Temperature 70 °F -  
Max Temperature 75 °F 74 °F 93 °F (2016)
Min Temperature 64 °F 60 °F 50 °F (2017)
Cooling Degree Days 6    
Growing Degree Days 20 (Base 50)    
Moisture  
Dew Point 65 °F    
Average Humidity 86    
Maximum Humidity 100    
Minimum Humidity 69    
Precipitation  
Precipitation 0.02 in - - ()
Sea Level Pressure  
Sea Level Pressure 30.22 in    
Wind  
Wind Speed 4 mph ()    
Max Wind Speed 14 mph    
Max Gust Speed -    
Visibility 10.0 miles    
Events Rain    
Averages and records for this station are not official NWS values.
T = Trace of Precipitation, MM = Missing Value Source: Averaged Metar Reports

Daily Weather History Graph

Daily Weather History Graph

Search for Another Location

Airport or City:

Astronomy

Sep. 09, 2019 Rise Set
Actual Time 6:31 AM EDT 7:15 PM EDT
Civil Twilight 6:03 AM EDT 7:43 PM EDT
Nautical Twilight 5:31 AM EDT 8:15 PM EDT
Astronomical Twilight 4:57 AM EDT 8:48 PM EDT
Moon 5:09 PM EDT (9/9) 2:00 AM EDT (9/9)
Length of Visible Light 13h 39m
Length of Day
12h 44m
Waxing Gibbous, 83% of the Moon is Illuminated
Sep 9
Waxing Gibbous
Sep 14
Full
Sep 21
Last Quarter
Sep 28
New
Oct 5
First Quarter

Hourly Weather History & Observations

Time (EDT) Temp. Dew Point Humidity Pressure Visibility Wind Dir Wind Speed Gust Speed Precip Events Conditions
12:56 AM 66.9 °F 64.9 °F 93% 30.15 in 10.0 mi ENE 3.5 mph - 0.00 in   Scattered Clouds
1:56 AM 68.0 °F 64.9 °F 90% 30.16 in 10.0 mi East 3.5 mph - N/A   Mostly Cloudy
2:56 AM 66.9 °F 66.0 °F 97% 30.15 in 10.0 mi NNE 3.5 mph - N/A   Scattered Clouds
3:56 AM 66.9 °F 66.0 °F 97% 30.16 in 10.0 mi NNE 3.5 mph - N/A   Overcast
4:56 AM 66.9 °F 66.0 °F 97% 30.17 in 10.0 mi NE 3.5 mph - N/A   Mostly Cloudy
5:45 AM 68.0 °F 66.2 °F 94% 30.18 in 10.0 mi NE 3.5 mph - N/A   Overcast
5:54 AM 68.0 °F 66.2 °F 94% 30.18 in 10.0 mi ENE 3.5 mph - N/A   Overcast
5:56 AM 68.0 °F 66.0 °F 93% 30.18 in 10.0 mi ENE 4.6 mph - N/A   Overcast
6:28 AM 68.0 °F 66.2 °F 94% 30.18 in 9.0 mi East 4.6 mph - N/A   Scattered Clouds
6:56 AM 68.0 °F 66.0 °F 93% 30.20 in 10.0 mi NE 4.6 mph - N/A   Clear
7:03 AM 68.0 °F 66.2 °F 94% 30.20 in 10.0 mi North 3.5 mph - N/A   Scattered Clouds
7:25 AM 68.0 °F 66.2 °F 94% 30.21 in 10.0 mi Calm Calm - N/A   Mostly Cloudy
7:56 AM 69.1 °F 66.9 °F 93% 30.22 in 10.0 mi NE 5.8 mph - N/A   Mostly Cloudy
8:25 AM 69.8 °F 66.2 °F 88% 30.22 in 10.0 mi ENE 8.1 mph - N/A   Partly Cloudy
8:56 AM 71.1 °F 64.9 °F 81% 30.23 in 10.0 mi East 5.8 mph - N/A   Scattered Clouds
9:56 AM 73.0 °F 63.0 °F 71% 30.24 in 10.0 mi Variable 6.9 mph - N/A   Partly Cloudy
10:56 AM 73.9 °F 64.0 °F 71% 30.25 in 10.0 mi Variable 3.5 mph - N/A   Clear
11:56 AM 75.0 °F 64.0 °F 69% 30.25 in 10.0 mi ENE 5.8 mph - N/A   Mostly Cloudy
12:23 PM 75.2 °F 64.4 °F 69% 30.24 in 10.0 mi East 10.4 mph - N/A   Mostly Cloudy
12:31 PM 75.2 °F 64.4 °F 69% 30.25 in 10.0 mi East 6.9 mph - N/A   Scattered Clouds
12:56 PM 75.0 °F 64.9 °F 71% 30.25 in 10.0 mi ESE 6.9 mph - N/A   Clear
1:56 PM 73.9 °F 64.9 °F 73% 30.23 in 10.0 mi East 10.4 mph - N/A   Clear
2:56 PM 73.9 °F 66.0 °F 76% 30.23 in 10.0 mi East 13.8 mph - N/A   Scattered Clouds
3:14 PM 75.2 °F 66.2 °F 73% 30.23 in 10.0 mi East 11.5 mph - N/A   Mostly Cloudy
3:43 PM 73.4 °F 64.4 °F 73% 30.23 in 10.0 mi East 10.4 mph - N/A   Scattered Clouds
3:56 PM 75.0 °F 64.0 °F 69% 30.23 in 10.0 mi East 11.5 mph - N/A   Partly Cloudy
4:56 PM 71.1 °F 64.0 °F 78% 30.24 in 10.0 mi ESE 6.9 mph - N/A   Mostly Cloudy
5:56 PM 70.0 °F 66.0 °F 87% 30.26 in 10.0 mi East 6.9 mph - 0.00 in Rain Light Rain
6:56 PM 69.1 °F 66.9 °F 93% 30.25 in 10.0 mi ESE 9.2 mph - 0.02 in   Overcast
7:56 PM 68.0 °F 66.0 °F 93% 30.25 in 10.0 mi ESE 4.6 mph - N/A   Overcast
8:56 PM 68.0 °F 66.0 °F 93% 30.27 in 10.0 mi Calm Calm - N/A   Mostly Cloudy
9:56 PM 66.9 °F 66.0 °F 97% 30.28 in 10.0 mi Calm Calm - N/A   Partly Cloudy
10:56 PM 66.0 °F 64.9 °F 96% 30.29 in 10.0 mi Calm Calm - N/A   Clear
11:56 PM 64.9 °F 64.9 °F 100% 30.29 in 10.0 mi Calm Calm - N/A   Mostly Cloudy